owner,sensor,date,latitude,longitude,air_pressure(mBar),qcFlag 
WAVCIS,ioos:station:WAVCIS:CSI06:1,2008-04-01T00:00:00Z,28.8667,-90.4833,1014.74,11111222 
WAVCIS,ioos:station:WAVCIS:CSI06:1,2008-04-01T01:00:00Z,28.8667,-90.4833,1015.25,11111222 
WAVCIS,ioos:station:WAVCIS:CSI06:1,2008-04-01T02:00:00Z,28.8667,-90.4833,1015.31,11111222 
WAVCIS,ioos:station:WAVCIS:CSI06:1,2008-04-01T03:00:00Z,28.8667,-90.4833,1015.38,11111222 
WAVCIS,ioos:station:WAVCIS:CSI06:1,2008-04-01T04:00:00Z,28.8667,-90.4833,1015.55,11111222 
WAVCIS,ioos:station:WAVCIS:CSI06:1,2008-04-01T05:00:00Z,28.8667,-90.4833,1015.57,11111222 
WAVCIS,ioos:station:WAVCIS:CSI06:1,2008-04-01T06:00:00Z,28.8667,-90.4833,1015.02,11111222 
WAVCIS,ioos:station:WAVCIS:CSI06:1,2008-04-01T07:00:00Z,28.8667,-90.4833,1015.18,11111222 
WAVCIS,ioos:station:WAVCIS:CSI06:1,2008-04-01T08:00:00Z,28.8667,-90.4833,1015.43,11111222 
WAVCIS,ioos:station:WAVCIS:CSI06:1,2008-04-01T09:00:00Z,28.8667,-90.4833,1015.15,11111222 
WAVCIS,ioos:station:WAVCIS:CSI06:1,2008-04-01T10:00:00Z,28.8667,-90.4833,1015.17,11111222 
WAVCIS,ioos:station:WAVCIS:CSI06:1,2008-04-01T11:00:00Z,28.8667,-90.4833,1016.07,11111222 
WAVCIS,ioos:station:WAVCIS:CSI06:1,2008-04-01T12:00:00Z,28.8667,-90.4833,1016.54,11111222 
WAVCIS,ioos:station:WAVCIS:CSI06:1,2008-04-01T13:00:00Z,28.8667,-90.4833,1016.76,11111222 
WAVCIS,ioos:station:WAVCIS:CSI06:1,2008-04-01T14:00:00Z,28.8667,-90.4833,1016.76,11111222 
WAVCIS,ioos:station:WAVCIS:CSI06:1,2008-04-01T15:00:00Z,28.8667,-90.4833,1017.57,11111222 
WAVCIS,ioos:station:WAVCIS:CSI06:1,2008-04-01T16:00:00Z,28.8667,-90.4833,1017.69,11111222 
WAVCIS,ioos:station:WAVCIS:CSI06:1,2008-04-01T17:00:00Z,28.8667,-90.4833,1018.08,11111222 
WAVCIS,ioos:station:WAVCIS:CSI06:1,2008-04-01T18:00:00Z,28.8667,-90.4833,1017.94,11111222 
WAVCIS,ioos:station:WAVCIS:CSI06:1,2008-04-01T19:00:00Z,28.8667,-90.4833,1017.64,11111222 
WAVCIS,ioos:station:WAVCIS:CSI06:1,2008-04-01T20:00:00Z,28.8667,-90.4833,1017.15,11111222 
WAVCIS,ioos:station:WAVCIS:CSI06:1,2008-04-01T21:00:00Z,28.8667,-90.4833,1016.51,11111222 
WAVCIS,ioos:station:WAVCIS:CSI06:1,2008-04-01T22:00:00Z,28.8667,-90.4833,1016.42,11111222 
WAVCIS,ioos:station:WAVCIS:CSI06:1,2008-04-01T23:00:00Z,28.8667,-90.4833,1016.71,11111222 
WAVCIS,ioos:station:WAVCIS:CSI06:1,2008-04-02T00:00:00Z,28.8667,-90.4833,1016.95,11111222 
WAVCIS,ioos:station:WAVCIS:CSI06:1,2008-04-02T01:00:00Z,28.8667,-90.4833,1017.71,11111222 
WAVCIS,ioos:station:WAVCIS:CSI06:1,2008-04-02T02:00:00Z,28.8667,-90.4833,1018.59,11111222 
WAVCIS,ioos:station:WAVCIS:CSI06:1,2008-04-02T03:00:00Z,28.8667,-90.4833,1019.26,11111222 
WAVCIS,ioos:station:WAVCIS:CSI06:1,2008-04-02T04:00:00Z,28.8667,-90.4833,1019.26,11111222 
WAVCIS,ioos:station:WAVCIS:CSI06:1,2008-04-02T05:00:00Z,28.8667,-90.4833,1019.14,11111222 
WAVCIS,ioos:station:WAVCIS:CSI06:1,2008-04-02T06:00:00Z,28.8667,-90.4833,1018.33,11111222 
WAVCIS,ioos:station:WAVCIS:CSI06:1,2008-04-02T07:00:00Z,28.8667,-90.4833,1018.18,11111222 
WAVCIS,ioos:station:WAVCIS:CSI06:1,2008-04-02T08:00:00Z,28.8667,-90.4833,1018.14,11111222 
WAVCIS,ioos:station:WAVCIS:CSI06:1,2008-04-02T09:00:00Z,28.8667,-90.4833,1017.92,11111222 
WAVCIS,ioos:station:WAVCIS:CSI06:1,2008-04-02T10:00:00Z,28.8667,-90.4833,1018.2,11111222 
WAVCIS,ioos:station:WAVCIS:CSI06:1,2008-04-02T11:00:00Z,28.8667,-90.4833,1018.86,11111222 
WAVCIS,ioos:station:WAVCIS:CSI06:1,2008-04-02T12:00:00Z,28.8667,-90.4833,1019.34,11111222 
WAVCIS,ioos:station:WAVCIS:CSI06:1,2008-04-02T13:00:00Z,28.8667,-90.4833,1019.94,11111222 
WAVCIS,ioos:station:WAVCIS:CSI06:1,2008-04-02T14:00:00Z,28.8667,-90.4833,1020.03,11111222 
WAVCIS,ioos:station:WAVCIS:CSI06:1,2008-04-02T15:00:00Z,28.8667,-90.4833,1020.26,11111222 
WAVCIS,ioos:station:WAVCIS:CSI06:1,2008-04-02T16:00:00Z,28.8667,-90.4833,1020.56,11111222 
WAVCIS,ioos:station:WAVCIS:CSI06:1,2008-04-02T17:00:00Z,28.8667,-90.4833,1020.51,11111222 
WAVCIS,ioos:station:WAVCIS:CSI06:1,2008-04-02T18:00:00Z,28.8667,-90.4833,1020.15,11111222 
WAVCIS,ioos:station:WAVCIS:CSI06:1,2008-04-02T19:00:00Z,28.8667,-90.4833,1019.63,11111222 
WAVCIS,ioos:station:WAVCIS:CSI06:1,2008-04-02T20:00:00Z,28.8667,-90.4833,1018.88,11111222 
WAVCIS,ioos:station:WAVCIS:CSI06:1,2008-04-02T21:00:00Z,28.8667,-90.4833,1018.37,11111222 
WAVCIS,ioos:station:WAVCIS:CSI06:1,2008-04-02T22:00:00Z,28.8667,-90.4833,1018.08,11111222 
WAVCIS,ioos:station:WAVCIS:CSI06:1,2008-04-03T01:00:00Z,28.8667,-90.4833,1018.34,11111222 
WAVCIS,ioos:station:WAVCIS:CSI06:1,2008-04-03T04:00:00Z,28.8667,-90.4833,1019.53,11111222 
WAVCIS,ioos:station:WAVCIS:CSI06:1,2008-04-03T07:00:00Z,28.8667,-90.4833,1018.42,11111222 
WAVCIS,ioos:station:WAVCIS:CSI06:1,2008-04-03T10:00:00Z,28.8667,-90.4833,1017.25,11111222 
WAVCIS,ioos:station:WAVCIS:CSI06:1,2008-04-03T11:00:00Z,28.8667,-90.4833,1017.15,11111222 
WAVCIS,ioos:station:WAVCIS:CSI06:1,2008-04-03T14:00:00Z,28.8667,-90.4833,1017.44,11111222 
WAVCIS,ioos:station:WAVCIS:CSI06:1,2008-04-03T15:00:00Z,28.8667,-90.4833,1017.57,11111222 
WAVCIS,ioos:station:WAVCIS:CSI06:1,2008-04-03T16:00:00Z,28.8667,-90.4833,1017.7,11111222 
WAVCIS,ioos:station:WAVCIS:CSI06:1,2008-04-03T19:00:00Z,28.8667,-90.4833,1015.75,11111222 
WAVCIS,ioos:station:WAVCIS:CSI06:1,2008-04-03T21:00:00Z,28.8667,-90.4833,1014.42,11111222 
WAVCIS,ioos:station:WAVCIS:CSI06:1,2008-04-03T22:00:00Z,28.8667,-90.4833,1013.71,11111222 
WAVCIS,ioos:station:WAVCIS:CSI06:1,2008-04-03T23:00:00Z,28.8667,-90.4833,1013.48,11111222 
WAVCIS,ioos:station:WAVCIS:CSI06:1,2008-04-04T00:00:00Z,28.8667,-90.4833,1013.57,11111222 
WAVCIS,ioos:station:WAVCIS:CSI06:1,2008-04-04T01:00:00Z,28.8667,-90.4833,1013.61,11111222 
WAVCIS,ioos:station:WAVCIS:CSI06:1,2008-04-04T04:00:00Z,28.8667,-90.4833,1013.79,11111222 
WAVCIS,ioos:station:WAVCIS:CSI06:1,2008-04-04T07:00:00Z,28.8667,-90.4833,1011.6,11111222 
WAVCIS,ioos:station:WAVCIS:CSI06:1,2008-04-04T10:00:00Z,28.8667,-90.4833,1010.26,11111222 
WAVCIS,ioos:station:WAVCIS:CSI06:1,2008-04-04T11:00:00Z,28.8667,-90.4833,1010.24,11111222 
WAVCIS,ioos:station:WAVCIS:CSI06:1,2008-04-04T14:00:00Z,28.8667,-90.4833,1011.77,11111222 
WAVCIS,ioos:station:WAVCIS:CSI06:1,2008-04-04T15:00:00Z,28.8667,-90.4833,1012.09,11111222 
WAVCIS,ioos:station:WAVCIS:CSI06:1,2008-04-04T16:00:00Z,28.8667,-90.4833,1011.99,11111222 
WAVCIS,ioos:station:WAVCIS:CSI06:1,2008-04-04T17:00:00Z,28.8667,-90.4833,1011.29,11111222 
WAVCIS,ioos:station:WAVCIS:CSI06:1,2008-04-04T18:00:00Z,28.8667,-90.4833,1011.06,11111222 
WAVCIS,ioos:station:WAVCIS:CSI06:1,2008-04-04T19:00:00Z,28.8667,-90.4833,1010.78,11111222 
WAVCIS,ioos:station:WAVCIS:CSI06:1,2008-04-04T20:00:00Z,28.8667,-90.4833,1010.25,11111222 
WAVCIS,ioos:station:WAVCIS:CSI06:1,2008-04-04T21:00:00Z,28.8667,-90.4833,1009.48,11111222 
WAVCIS,ioos:station:WAVCIS:CSI06:1,2008-04-04T22:00:00Z,28.8667,-90.4833,1008.99,11111222 
WAVCIS,ioos:station:WAVCIS:CSI06:1,2008-04-04T23:00:00Z,28.8667,-90.4833,1009.25,11111222 
WAVCIS,ioos:station:WAVCIS:CSI06:1,2008-04-05T00:00:00Z,28.8667,-90.4833,1008.83,11111222 
WAVCIS,ioos:station:WAVCIS:CSI06:1,2008-04-05T01:00:00Z,28.8667,-90.4833,1008.73,11111222 
WAVCIS,ioos:station:WAVCIS:CSI06:1,2008-04-05T02:00:00Z,28.8667,-90.4833,1008.8,11111222 
WAVCIS,ioos:station:WAVCIS:CSI06:1,2008-04-05T03:00:00Z,28.8667,-90.4833,1009.23,11111222 
WAVCIS,ioos:station:WAVCIS:CSI06:1,2008-04-05T04:00:00Z,28.8667,-90.4833,1009.4,11111222 
WAVCIS,ioos:station:WAVCIS:CSI06:1,2008-04-05T05:00:00Z,28.8667,-90.4833,1009.5,11111222 
WAVCIS,ioos:station:WAVCIS:CSI06:1,2008-04-05T06:00:00Z,28.8667,-90.4833,1008.86,11111222 
WAVCIS,ioos:station:WAVCIS:CSI06:1,2008-04-05T07:00:00Z,28.8667,-90.4833,1008.63,11111222 
WAVCIS,ioos:station:WAVCIS:CSI06:1,2008-04-05T08:00:00Z,28.8667,-90.4833,1008.39,11111222 
WAVCIS,ioos:station:WAVCIS:CSI06:1,2008-04-05T09:00:00Z,28.8667,-90.4833,1007.86,11111222 
WAVCIS,ioos:station:WAVCIS:CSI06:1,2008-04-05T10:00:00Z,28.8667,-90.4833,1007.78,11111222 
WAVCIS,ioos:station:WAVCIS:CSI06:1,2008-04-05T11:00:00Z,28.8667,-90.4833,1007.76,11111222 
WAVCIS,ioos:station:WAVCIS:CSI06:1,2008-04-05T12:00:00Z,28.8667,-90.4833,1008.28,11111222 
WAVCIS,ioos:station:WAVCIS:CSI06:1,2008-04-05T13:00:00Z,28.8667,-90.4833,1008.54,11111222 
WAVCIS,ioos:station:WAVCIS:CSI06:1,2008-04-05T14:00:00Z,28.8667,-90.4833,1009.78,11111222 
WAVCIS,ioos:station:WAVCIS:CSI06:1,2008-04-05T15:00:00Z,28.8667,-90.4833,1010.58,11111222 
WAVCIS,ioos:station:WAVCIS:CSI06:1,2008-04-05T16:00:00Z,28.8667,-90.4833,1011.53,11111222 
WAVCIS,ioos:station:WAVCIS:CSI06:1,2008-04-05T17:00:00Z,28.8667,-90.4833,1011.21,11111222 
WAVCIS,ioos:station:WAVCIS:CSI06:1,2008-04-05T18:00:00Z,28.8667,-90.4833,1010.56,11111222 
WAVCIS,ioos:station:WAVCIS:CSI06:1,2008-04-05T20:00:00Z,28.8667,-90.4833,1009.65,11111222 
WAVCIS,ioos:station:WAVCIS:CSI06:1,2008-04-05T21:00:00Z,28.8667,-90.4833,1009.81,11111222 
WAVCIS,ioos:station:WAVCIS:CSI06:1,2008-04-05T22:00:00Z,28.8667,-90.4833,1009.67,11111222 
WAVCIS,ioos:station:WAVCIS:CSI06:1,2008-04-05T23:00:00Z,28.8667,-90.4833,1009.92,11111222 
WAVCIS,ioos:station:WAVCIS:CSI06:1,2008-04-06T00:00:00Z,28.8667,-90.4833,1010.37,11111222 
WAVCIS,ioos:station:WAVCIS:CSI06:1,2008-04-06T01:00:00Z,28.8667,-90.4833,1010.24,11111222 
WAVCIS,ioos:station:WAVCIS:CSI06:1,2008-04-06T02:00:00Z,28.8667,-90.4833,1010.51,11111222 
WAVCIS,ioos:station:WAVCIS:CSI06:1,2008-04-06T03:00:00Z,28.8667,-90.4833,1011.24,11111222 
WAVCIS,ioos:station:WAVCIS:CSI06:1,2008-04-06T04:00:00Z,28.8667,-90.4833,1011.32,11111222 
WAVCIS,ioos:station:WAVCIS:CSI06:1,2008-04-06T05:00:00Z,28.8667,-90.4833,1011.01,11111222 
WAVCIS,ioos:station:WAVCIS:CSI06:1,2008-04-06T06:00:00Z,28.8667,-90.4833,1011.02,11111222 
WAVCIS,ioos:station:WAVCIS:CSI06:1,2008-04-06T07:00:00Z,28.8667,-90.4833,1010.4,11111222 
WAVCIS,ioos:station:WAVCIS:CSI06:1,2008-04-06T08:00:00Z,28.8667,-90.4833,1010.06,11111222 
WAVCIS,ioos:station:WAVCIS:CSI06:1,2008-04-06T09:00:00Z,28.8667,-90.4833,1009.64,11111222 
WAVCIS,ioos:station:WAVCIS:CSI06:1,2008-04-06T10:00:00Z,28.8667,-90.4833,1009.66,11111222 
WAVCIS,ioos:station:WAVCIS:CSI06:1,2008-04-06T11:00:00Z,28.8667,-90.4833,1010.0,11111222 
WAVCIS,ioos:station:WAVCIS:CSI06:1,2008-04-06T12:00:00Z,28.8667,-90.4833,1010.49,11111222 
WAVCIS,ioos:station:WAVCIS:CSI06:1,2008-04-06T13:00:00Z,28.8667,-90.4833,1011.15,11111222 
WAVCIS,ioos:station:WAVCIS:CSI06:1,2008-04-06T14:00:00Z,28.8667,-90.4833,1011.4,11111222 
WAVCIS,ioos:station:WAVCIS:CSI06:1,2008-04-06T15:00:00Z,28.8667,-90.4833,1011.56,11111222 
WAVCIS,ioos:station:WAVCIS:CSI06:1,2008-04-06T16:00:00Z,28.8667,-90.4833,1011.68,11111222 
WAVCIS,ioos:station:WAVCIS:CSI06:1,2008-04-06T17:00:00Z,28.8667,-90.4833,1012.24,11111222 
WAVCIS,ioos:station:WAVCIS:CSI06:1,2008-04-06T18:00:00Z,28.8667,-90.4833,1011.82,11111222 
WAVCIS,ioos:station:WAVCIS:CSI06:1,2008-04-06T19:00:00Z,28.8667,-90.4833,1011.5,11111222 
WAVCIS,ioos:station:WAVCIS:CSI06:1,2008-04-06T20:00:00Z,28.8667,-90.4833,1010.91,11111222 
WAVCIS,ioos:station:WAVCIS:CSI06:1,2008-04-06T21:00:00Z,28.8667,-90.4833,1010.77,11111222 
WAVCIS,ioos:station:WAVCIS:CSI06:1,2008-04-06T22:00:00Z,28.8667,-90.4833,1010.68,11111222 
WAVCIS,ioos:station:WAVCIS:CSI06:1,2008-04-06T23:00:00Z,28.8667,-90.4833,1010.73,11111222 
WAVCIS,ioos:station:WAVCIS:CSI06:1,2008-04-07T00:00:00Z,28.8667,-90.4833,1010.75,11111222 
WAVCIS,ioos:station:WAVCIS:CSI06:1,2008-04-07T01:00:00Z,28.8667,-90.4833,1011.11,11111222 
WAVCIS,ioos:station:WAVCIS:CSI06:1,2008-04-07T02:00:00Z,28.8667,-90.4833,1011.73,11111222 
WAVCIS,ioos:station:WAVCIS:CSI06:1,2008-04-07T03:00:00Z,28.8667,-90.4833,1012.16,11111222 
WAVCIS,ioos:station:WAVCIS:CSI06:1,2008-04-07T04:00:00Z,28.8667,-90.4833,1011.66,11111222 
WAVCIS,ioos:station:WAVCIS:CSI06:1,2008-04-07T05:00:00Z,28.8667,-90.4833,1011.68,11111222 
WAVCIS,ioos:station:WAVCIS:CSI06:1,2008-04-07T06:00:00Z,28.8667,-90.4833,1011.84,11111222 
WAVCIS,ioos:station:WAVCIS:CSI06:1,2008-04-07T07:00:00Z,28.8667,-90.4833,1011.59,11111222 
WAVCIS,ioos:station:WAVCIS:CSI06:1,2008-04-07T08:00:00Z,28.8667,-90.4833,1011.42,11111222 
WAVCIS,ioos:station:WAVCIS:CSI06:1,2008-04-07T09:00:00Z,28.8667,-90.4833,1011.43,11111222 
WAVCIS,ioos:station:WAVCIS:CSI06:1,2008-04-07T10:00:00Z,28.8667,-90.4833,1011.64,11111222 
WAVCIS,ioos:station:WAVCIS:CSI06:1,2008-04-07T11:00:00Z,28.8667,-90.4833,1011.92,11111222 
WAVCIS,ioos:station:WAVCIS:CSI06:1,2008-04-07T12:00:00Z,28.8667,-90.4833,1012.49,11111222 
WAVCIS,ioos:station:WAVCIS:CSI06:1,2008-04-07T13:00:00Z,28.8667,-90.4833,1013.5,11111222 
WAVCIS,ioos:station:WAVCIS:CSI06:1,2008-04-07T14:00:00Z,28.8667,-90.4833,1013.29,11111222 
WAVCIS,ioos:station:WAVCIS:CSI06:1,2008-04-07T15:00:00Z,28.8667,-90.4833,1013.43,11111222 
WAVCIS,ioos:station:WAVCIS:CSI06:1,2008-04-07T16:00:00Z,28.8667,-90.4833,1013.38,11111222 
WAVCIS,ioos:station:WAVCIS:CSI06:1,2008-04-07T17:00:00Z,28.8667,-90.4833,1013.29,11111222 
WAVCIS,ioos:station:WAVCIS:CSI06:1,2008-04-07T18:00:00Z,28.8667,-90.4833,1013.51,11111222 
WAVCIS,ioos:station:WAVCIS:CSI06:1,2008-04-07T19:00:00Z,28.8667,-90.4833,1013.33,11111222 
WAVCIS,ioos:station:WAVCIS:CSI06:1,2008-04-07T20:00:00Z,28.8667,-90.4833,1012.94,11111222 
WAVCIS,ioos:station:WAVCIS:CSI06:1,2008-04-07T21:00:00Z,28.8667,-90.4833,1012.39,11111222 
WAVCIS,ioos:station:WAVCIS:CSI06:1,2008-04-07T22:00:00Z,28.8667,-90.4833,1012.13,11111222 
WAVCIS,ioos:station:WAVCIS:CSI06:1,2008-04-07T23:00:00Z,28.8667,-90.4833,1012.05,11111222 
WAVCIS,ioos:station:WAVCIS:CSI06:1,2008-04-08T00:00:00Z,28.8667,-90.4833,1012.11,11111222 
WAVCIS,ioos:station:WAVCIS:CSI06:1,2008-04-08T01:00:00Z,28.8667,-90.4833,1012.6,11111222 
WAVCIS,ioos:station:WAVCIS:CSI06:1,2008-04-08T02:00:00Z,28.8667,-90.4833,1012.7,11111222 
WAVCIS,ioos:station:WAVCIS:CSI06:1,2008-04-08T03:00:00Z,28.8667,-90.4833,1012.86,11111222 
WAVCIS,ioos:station:WAVCIS:CSI06:1,2008-04-08T04:00:00Z,28.8667,-90.4833,1012.74,11111222 
WAVCIS,ioos:station:WAVCIS:CSI06:1,2008-04-08T05:00:00Z,28.8667,-90.4833,1012.43,11111222 
WAVCIS,ioos:station:WAVCIS:CSI06:1,2008-04-08T06:00:00Z,28.8667,-90.4833,1012.35,11111222 
WAVCIS,ioos:station:WAVCIS:CSI06:1,2008-04-08T07:00:00Z,28.8667,-90.4833,1012.27,11111222 
WAVCIS,ioos:station:WAVCIS:CSI06:1,2008-04-08T08:00:00Z,28.8667,-90.4833,1012.03,11111222 
WAVCIS,ioos:station:WAVCIS:CSI06:1,2008-04-08T09:00:00Z,28.8667,-90.4833,1011.66,11111222 
WAVCIS,ioos:station:WAVCIS:CSI06:1,2008-04-08T10:00:00Z,28.8667,-90.4833,1011.5,11111222 
WAVCIS,ioos:station:WAVCIS:CSI06:1,2008-04-08T11:00:00Z,28.8667,-90.4833,1011.74,11111222 
WAVCIS,ioos:station:WAVCIS:CSI06:1,2008-04-08T12:00:00Z,28.8667,-90.4833,1012.33,11111222 
WAVCIS,ioos:station:WAVCIS:CSI06:1,2008-04-08T13:00:00Z,28.8667,-90.4833,1012.76,11111222 
WAVCIS,ioos:station:WAVCIS:CSI06:1,2008-04-08T14:00:00Z,28.8667,-90.4833,1013.06,11111222 
WAVCIS,ioos:station:WAVCIS:CSI06:1,2008-04-08T15:00:00Z,28.8667,-90.4833,1013.68,11111222 
WAVCIS,ioos:station:WAVCIS:CSI06:1,2008-04-08T16:00:00Z,28.8667,-90.4833,1014.11,11111222 
WAVCIS,ioos:station:WAVCIS:CSI06:1,2008-04-08T17:00:00Z,28.8667,-90.4833,1014.14,11111222 
WAVCIS,ioos:station:WAVCIS:CSI06:1,2008-04-08T18:00:00Z,28.8667,-90.4833,1013.91,11111222 
WAVCIS,ioos:station:WAVCIS:CSI06:1,2008-04-08T19:00:00Z,28.8667,-90.4833,1013.53,11111222 
WAVCIS,ioos:station:WAVCIS:CSI06:1,2008-04-08T20:00:00Z,28.8667,-90.4833,1012.9,11111222 
WAVCIS,ioos:station:WAVCIS:CSI06:1,2008-04-08T21:00:00Z,28.8667,-90.4833,1012.57,11111222 
WAVCIS,ioos:station:WAVCIS:CSI06:1,2008-04-08T22:00:00Z,28.8667,-90.4833,1012.32,11111222 
WAVCIS,ioos:station:WAVCIS:CSI06:1,2008-04-08T23:00:00Z,28.8667,-90.4833,1012.46,11111222 
WAVCIS,ioos:station:WAVCIS:CSI06:1,2008-04-09T00:00:00Z,28.8667,-90.4833,1012.5,11111222 
WAVCIS,ioos:station:WAVCIS:CSI06:1,2008-04-09T01:00:00Z,28.8667,-90.4833,1012.89,11111222 
WAVCIS,ioos:station:WAVCIS:CSI06:1,2008-04-09T02:00:00Z,28.8667,-90.4833,1013.21,11111222 
WAVCIS,ioos:station:WAVCIS:CSI06:1,2008-04-09T03:00:00Z,28.8667,-90.4833,1013.5,11111222 
WAVCIS,ioos:station:WAVCIS:CSI06:1,2008-04-09T04:00:00Z,28.8667,-90.4833,1013.64,11111222 
WAVCIS,ioos:station:WAVCIS:CSI06:1,2008-04-09T05:00:00Z,28.8667,-90.4833,1013.71,11111222 
WAVCIS,ioos:station:WAVCIS:CSI06:1,2008-04-09T06:00:00Z,28.8667,-90.4833,1013.71,11111222 
WAVCIS,ioos:station:WAVCIS:CSI06:1,2008-04-09T07:00:00Z,28.8667,-90.4833,1013.5,11111222 
WAVCIS,ioos:station:WAVCIS:CSI06:1,2008-04-09T08:00:00Z,28.8667,-90.4833,1012.9,11111222 
WAVCIS,ioos:station:WAVCIS:CSI06:1,2008-04-09T09:00:00Z,28.8667,-90.4833,1012.73,11111222 
WAVCIS,ioos:station:WAVCIS:CSI06:1,2008-04-09T10:00:00Z,28.8667,-90.4833,1012.61,11111222 
WAVCIS,ioos:station:WAVCIS:CSI06:1,2008-04-09T11:00:00Z,28.8667,-90.4833,1013.09,11111222 
WAVCIS,ioos:station:WAVCIS:CSI06:1,2008-04-09T12:00:00Z,28.8667,-90.4833,1013.66,11111222 
WAVCIS,ioos:station:WAVCIS:CSI06:1,2008-04-09T13:00:00Z,28.8667,-90.4833,1014.23,11111222 
WAVCIS,ioos:station:WAVCIS:CSI06:1,2008-04-09T14:00:00Z,28.8667,-90.4833,1014.31,11111222 
WAVCIS,ioos:station:WAVCIS:CSI06:1,2008-04-09T15:00:00Z,28.8667,-90.4833,1014.8,11111222 
WAVCIS,ioos:station:WAVCIS:CSI06:1,2008-04-09T16:00:00Z,28.8667,-90.4833,1015.3,11111222 
WAVCIS,ioos:station:WAVCIS:CSI06:1,2008-04-09T17:00:00Z,28.8667,-90.4833,1015.23,11111222 
WAVCIS,ioos:station:WAVCIS:CSI06:1,2008-04-09T18:00:00Z,28.8667,-90.4833,1014.6,11111222 
WAVCIS,ioos:station:WAVCIS:CSI06:1,2008-04-09T19:00:00Z,28.8667,-90.4833,1014.33,11111222 
WAVCIS,ioos:station:WAVCIS:CSI06:1,2008-04-09T20:00:00Z,28.8667,-90.4833,1013.75,11111222 
WAVCIS,ioos:station:WAVCIS:CSI06:1,2008-04-09T21:00:00Z,28.8667,-90.4833,1012.97,11111222 
WAVCIS,ioos:station:WAVCIS:CSI06:1,2008-04-09T22:00:00Z,28.8667,-90.4833,1012.49,11111222 
WAVCIS,ioos:station:WAVCIS:CSI06:1,2008-04-09T23:00:00Z,28.8667,-90.4833,1012.24,11111222 
WAVCIS,ioos:station:WAVCIS:CSI06:1,2008-04-10T00:00:00Z,28.8667,-90.4833,1011.93,11111222 
WAVCIS,ioos:station:WAVCIS:CSI06:1,2008-04-10T01:00:00Z,28.8667,-90.4833,1011.96,11111222 
WAVCIS,ioos:station:WAVCIS:CSI06:1,2008-04-10T02:00:00Z,28.8667,-90.4833,1012.04,11111222 
WAVCIS,ioos:station:WAVCIS:CSI06:1,2008-04-10T03:00:00Z,28.8667,-90.4833,1012.06,11111222 
WAVCIS,ioos:station:WAVCIS:CSI06:1,2008-04-10T04:00:00Z,28.8667,-90.4833,1012.01,11111222 
WAVCIS,ioos:station:WAVCIS:CSI06:1,2008-04-10T05:00:00Z,28.8667,-90.4833,1011.48,11111222 
WAVCIS,ioos:station:WAVCIS:CSI06:1,2008-04-10T06:00:00Z,28.8667,-90.4833,1010.63,11111222 
WAVCIS,ioos:station:WAVCIS:CSI06:1,2008-04-10T07:00:00Z,28.8667,-90.4833,1010.01,11111222 
WAVCIS,ioos:station:WAVCIS:CSI06:1,2008-04-10T08:00:00Z,28.8667,-90.4833,1009.45,11111222 
WAVCIS,ioos:station:WAVCIS:CSI06:1,2008-04-10T09:00:00Z,28.8667,-90.4833,1008.44,11111222 
WAVCIS,ioos:station:WAVCIS:CSI06:1,2008-04-10T10:00:00Z,28.8667,-90.4833,1008.51,11111222 
WAVCIS,ioos:station:WAVCIS:CSI06:1,2008-04-10T11:00:00Z,28.8667,-90.4833,1008.61,11111222 
WAVCIS,ioos:station:WAVCIS:CSI06:1,2008-04-10T12:00:00Z,28.8667,-90.4833,1008.99,11111222 
WAVCIS,ioos:station:WAVCIS:CSI06:1,2008-04-10T13:00:00Z,28.8667,-90.4833,1009.27,11111222 
WAVCIS,ioos:station:WAVCIS:CSI06:1,2008-04-10T14:00:00Z,28.8667,-90.4833,1009.31,11111222 
WAVCIS,ioos:station:WAVCIS:CSI06:1,2008-04-10T15:00:00Z,28.8667,-90.4833,1009.95,11111222 
WAVCIS,ioos:station:WAVCIS:CSI06:1,2008-04-10T16:00:00Z,28.8667,-90.4833,1010.45,11111222 
WAVCIS,ioos:station:WAVCIS:CSI06:1,2008-04-10T17:00:00Z,28.8667,-90.4833,1010.68,11111222 
WAVCIS,ioos:station:WAVCIS:CSI06:1,2008-04-10T18:00:00Z,28.8667,-90.4833,1010.4,11111222 
WAVCIS,ioos:station:WAVCIS:CSI06:1,2008-04-10T19:00:00Z,28.8667,-90.4833,1009.88,11111222 
WAVCIS,ioos:station:WAVCIS:CSI06:1,2008-04-10T20:00:00Z,28.8667,-90.4833,1009.49,11111222 
WAVCIS,ioos:station:WAVCIS:CSI06:1,2008-04-10T21:00:00Z,28.8667,-90.4833,1008.98,11111222 
WAVCIS,ioos:station:WAVCIS:CSI06:1,2008-04-10T22:00:00Z,28.8667,-90.4833,1008.53,11111222 
WAVCIS,ioos:station:WAVCIS:CSI06:1,2008-04-10T23:00:00Z,28.8667,-90.4833,1008.83,11111222 
WAVCIS,ioos:station:WAVCIS:CSI06:1,2008-04-11T00:00:00Z,28.8667,-90.4833,1009.1,11111222 
WAVCIS,ioos:station:WAVCIS:CSI06:1,2008-04-11T01:00:00Z,28.8667,-90.4833,1009.58,11111222 
WAVCIS,ioos:station:WAVCIS:CSI06:1,2008-04-11T02:00:00Z,28.8667,-90.4833,1009.65,11111222 
WAVCIS,ioos:station:WAVCIS:CSI06:1,2008-04-11T03:00:00Z,28.8667,-90.4833,1010.32,11111222 
WAVCIS,ioos:station:WAVCIS:CSI06:1,2008-04-11T04:00:00Z,28.8667,-90.4833,1010.05,11111222 
WAVCIS,ioos:station:WAVCIS:CSI06:1,2008-04-11T05:00:00Z,28.8667,-90.4833,1010.31,11111222 
WAVCIS,ioos:station:WAVCIS:CSI06:1,2008-04-11T06:00:00Z,28.8667,-90.4833,1010.13,11111222 
WAVCIS,ioos:station:WAVCIS:CSI06:1,2008-04-11T07:00:00Z,28.8667,-90.4833,1009.84,11111222 
WAVCIS,ioos:station:WAVCIS:CSI06:1,2008-04-11T08:00:00Z,28.8667,-90.4833,1009.71,11111222 
WAVCIS,ioos:station:WAVCIS:CSI06:1,2008-04-11T09:00:00Z,28.8667,-90.4833,1009.57,11111222 
WAVCIS,ioos:station:WAVCIS:CSI06:1,2008-04-11T10:00:00Z,28.8667,-90.4833,1009.38,11111222 
WAVCIS,ioos:station:WAVCIS:CSI06:1,2008-04-11T11:00:00Z,28.8667,-90.4833,1009.77,11111222 
WAVCIS,ioos:station:WAVCIS:CSI06:1,2008-04-11T12:00:00Z,28.8667,-90.4833,1010.27,11111222 
WAVCIS,ioos:station:WAVCIS:CSI06:1,2008-04-11T13:00:00Z,28.8667,-90.4833,1010.69,11111222 
WAVCIS,ioos:station:WAVCIS:CSI06:1,2008-04-11T14:00:00Z,28.8667,-90.4833,1011.19,11111222 
WAVCIS,ioos:station:WAVCIS:CSI06:1,2008-04-11T15:00:00Z,28.8667,-90.4833,1011.89,11111222 
WAVCIS,ioos:station:WAVCIS:CSI06:1,2008-04-11T16:00:00Z,28.8667,-90.4833,1012.17,11111222 
WAVCIS,ioos:station:WAVCIS:CSI06:1,2008-04-11T17:00:00Z,28.8667,-90.4833,1011.93,11111222 
WAVCIS,ioos:station:WAVCIS:CSI06:1,2008-04-11T18:00:00Z,28.8667,-90.4833,1011.36,11111222 
WAVCIS,ioos:station:WAVCIS:CSI06:1,2008-04-11T19:00:00Z,28.8667,-90.4833,1010.95,11111222 
WAVCIS,ioos:station:WAVCIS:CSI06:1,2008-04-11T20:00:00Z,28.8667,-90.4833,1010.53,11111222 
WAVCIS,ioos:station:WAVCIS:CSI06:1,2008-04-11T21:00:00Z,28.8667,-90.4833,1010.17,11111222 
WAVCIS,ioos:station:WAVCIS:CSI06:1,2008-04-11T22:00:00Z,28.8667,-90.4833,1009.78,11111222 
WAVCIS,ioos:station:WAVCIS:CSI06:1,2008-04-11T23:00:00Z,28.8667,-90.4833,1009.74,11111222 
WAVCIS,ioos:station:WAVCIS:CSI06:1,2008-04-12T00:00:00Z,28.8667,-90.4833,1009.82,11111222 
WAVCIS,ioos:station:WAVCIS:CSI06:1,2008-04-12T01:00:00Z,28.8667,-90.4833,1009.92,11111222 
WAVCIS,ioos:station:WAVCIS:CSI06:1,2008-04-12T02:00:00Z,28.8667,-90.4833,1010.49,11111222 
WAVCIS,ioos:station:WAVCIS:CSI06:1,2008-04-12T03:00:00Z,28.8667,-90.4833,1011.12,11111222 
WAVCIS,ioos:station:WAVCIS:CSI06:1,2008-04-12T04:00:00Z,28.8667,-90.4833,1011.46,11111222 
WAVCIS,ioos:station:WAVCIS:CSI06:1,2008-04-12T05:00:00Z,28.8667,-90.4833,1011.23,11111222 
WAVCIS,ioos:station:WAVCIS:CSI06:1,2008-04-12T06:00:00Z,28.8667,-90.4833,1011.28,11111222 
WAVCIS,ioos:station:WAVCIS:CSI06:1,2008-04-12T07:00:00Z,28.8667,-90.4833,1010.95,11111222 
WAVCIS,ioos:station:WAVCIS:CSI06:1,2008-04-12T08:00:00Z,28.8667,-90.4833,1010.98,11111222 
WAVCIS,ioos:station:WAVCIS:CSI06:1,2008-04-12T09:00:00Z,28.8667,-90.4833,1011.68,11111222 
WAVCIS,ioos:station:WAVCIS:CSI06:1,2008-04-12T10:00:00Z,28.8667,-90.4833,1013.73,11111222 
WAVCIS,ioos:station:WAVCIS:CSI06:1,2008-04-12T11:00:00Z,28.8667,-90.4833,1013.9,11111222 
WAVCIS,ioos:station:WAVCIS:CSI06:1,2008-04-12T12:00:00Z,28.8667,-90.4833,1014.24,11111222 
WAVCIS,ioos:station:WAVCIS:CSI06:1,2008-04-12T13:00:00Z,28.8667,-90.4833,1015.78,11111222 
WAVCIS,ioos:station:WAVCIS:CSI06:1,2008-04-12T14:00:00Z,28.8667,-90.4833,1016.17,11111222 
WAVCIS,ioos:station:WAVCIS:CSI06:1,2008-04-12T15:00:00Z,28.8667,-90.4833,1016.61,11111222 
WAVCIS,ioos:station:WAVCIS:CSI06:1,2008-04-12T16:00:00Z,28.8667,-90.4833,1017.52,11111222 
WAVCIS,ioos:station:WAVCIS:CSI06:1,2008-04-12T17:00:00Z,28.8667,-90.4833,1017.3,11111222 
WAVCIS,ioos:station:WAVCIS:CSI06:1,2008-04-12T18:00:00Z,28.8667,-90.4833,1017.2,11111222 
WAVCIS,ioos:station:WAVCIS:CSI06:1,2008-04-12T19:00:00Z,28.8667,-90.4833,1016.51,11111222 
WAVCIS,ioos:station:WAVCIS:CSI06:1,2008-04-12T20:00:00Z,28.8667,-90.4833,1016.29,11111222 